Location: La Brionne
(46.1728°N, 1.7849°E)
Time: 08:34:51
(UTC+00:00)

SL-8 R/B - Pass Details

Date: 16 June 2021
Orbit: 656 x 667 km, 48.4° (Epoch: 02 August)

Event Time Altitude Azimuth Distance (km) Brightness Sun altitude
Rises 21:31:01 0° 287° (WNW) 2,993 7.9 -13.3°
Reaches altitude 10° 21:33:22 10° 287° (WNW) 2,077 7.0 -13.5°
Maximum altitude 21:38:11 86° 201° (SSW) 665 3.6 -14.0°
Enters shadow 21:41:59 16° 111° (ESE) 1,695 5.3 -14.3°
